Location: Fairhaven
(34.9340°N, 89.7987°W)
Time: 03:25:08
(UTC+00:00)

IRS-1D - Pass Details

Date: 13 February 2026
Orbit: 736 x 811 km, 98.8° (Epoch: 6 March)

Event Time Altitude Azimuth Distance (km) Brightness Sun altitude
Rises 12:01:36 0° 359° (N) 3,289 6.7 -9.9°
Reaches altitude 10° 12:04:17 10° 347° (NNW) 2,344 5.8 -9.4°
Maximum altitude 12:08:27 25° 293° (WNW) 1,507 4.5 -8.5°
Drops below altitude 10° 12:12:32 10° 238° (WSW) 2,293 5.5 -7.7°
Sets 12:15:09 0° 226° (SW) 3,202 6.4 -7.2°
